CW0069 Weather Reports


time (UTC)temp
C
wind
direction
speed
KPH
gust
KPH
rain 1hr
cm
rain 24hr
cm
rain mn
cm
humidity
%
barometer
mb
20260506112904 13 336 14.5 27.4 0.00 0.00 0.00 58 1009.9
20260506112404 13 325 11.3 25.7 0.00 0.00 0.00 58 1009.9
20260506111904 13 322 8.0 19.3 0.00 0.00 0.00 57 1009.5
20260506111404 13 331 12.9 24.1 0.00 0.00 0.00 57 1009.6
20260506110904 13 325 11.3 22.5 0.00 0.00 0.00 56 1009.6
20260506110404 14 337 16.1 24.1 0.00 0.00 0.00 56 1009.3
20260506105904 14 322 9.7 19.3 0.00 0.00 0.00 56 1009.3
20260506104904 14 343 8.0 19.3 0.00 0.00 0.00 56 1009.0
20260506104404 14 344 11.3 19.3 0.00 0.00 0.00 56 1009.0
20260506103404 14 329 14.5 25.7 0.00 0.00 0.00 56 1008.7
20260506102904 14 331 8.0 20.9 0.00 0.00 0.00 56 1008.7
20260506102404 14 334 8.0 19.3 0.00 0.00 0.00 56 1008.5
20260506101904 14 315 6.4 19.3 0.00 0.00 0.00 56 1008.4
20260506101404 14 319 9.7 20.9 0.00 0.00 0.00 56 1008.3
20260506100905 14 339 9.7 19.3 0.00 0.00 0.00 56 1008.3
20260506100404 14 335 11.3 19.3 0.00 0.00 0.00 57 1008.2
20260506095904 14 339 9.7 19.3 0.00 0.00 0.00 57 1008.3
20260506094904 14 9 8.0 19.3 0.00 0.00 0.00 57 1008.2
20260506094404 14 320 4.8 14.5 0.00 0.00 0.00 57 1008.2
20260506093905 14 354 8.0 14.5 0.00 0.00 0.00 57 1008.2
20260506093404 14 337 9.7 20.9 0.00 0.00 0.00 57 1008.2
20260506092904 14 341 9.7 19.3 0.00 0.00 0.00 56 1008.2
20260506092404 14 327 9.7 19.3 0.00 0.00 0.00 56 1008.1
20260506091904 14 343 8.0 14.5 0.00 0.00 0.00 57 1008.1
20260506090904 14 336 4.8 12.9 0.00 0.00 0.00 57 1008.0
20260506090404 14 359 8.0 12.9 0.00 0.00 0.00 57 1007.9
20260506085904 14 354 6.4 14.5 0.00 0.00 0.00 57 1007.9
20260506085404 15 346 9.7 16.1 0.00 0.00 0.00 57 1007.9
20260506084904 15 2 4.8 9.7 0.00 0.00 0.00 57 1007.8
20260506084404 15 347 8.0 14.5 0.00 0.00 0.00 57 1007.7
20260506083904 15 35 4.8 14.5 0.00 0.00 0.00 57 1007.5
20260506082904 15 47 4.8 12.9 0.00 0.00 0.00 57 1007.4
20260506082404 15 20 4.8 16.1 0.00 0.00 0.00 57 1007.4
20260506081905 15 346 6.4 16.1 0.00 0.00 0.00 57 1007.3
20260506081404 15 342 8.0 16.1 0.00 0.00 0.00 57 1007.5
20260506080904 15 349 8.0 16.1 0.00 0.00 0.00 57 1007.4
20260506080404 15 34 4.8 12.9 0.00 0.00 0.00 57 1007.3
20260506073404 15 341 11.3 22.5 0.00 0.00 0.00 57 1007.6
20260506072904 15 350 8.0 20.9 0.00 0.00 0.00 57 1007.6
20260506072404 16 346 12.9 22.5 0.00 0.00 0.00 57 1007.6
20260506071904 16 350 9.7 20.9 0.00 0.00 0.00 57 1007.7
20260506071404 16 342 8.0 16.1 0.00 0.00 0.00 59 1007.5
20260506070904 16 341 9.7 16.1 0.00 0.00 0.00 58 1007.4
20260506070405 16 350 8.0 19.3 0.00 0.00 0.00 58 1007.5
20260506062404 17 343 11.3 22.5 0.00 0.00 0.00 56 1007.4
20260506061904 17 331 9.7 20.9 0.00 0.00 0.00 57 1007.3
20260506061404 17 6 9.7 16.1 0.00 0.00 0.00 56 1007.4
20260506060904 17 354 11.3 19.3 0.00 0.00 0.00 56 1007.3
20260506060404 17 351 12.9 19.3 0.00 0.00 0.00 56 1007.3
20260506051404 19 343 11.3 20.9 0.00 0.00 0.00 56 1007.1
20260506050904 19 344 14.5 22.5 0.00 0.00 0.00 56 1006.9
20260506050404 19 346 12.9 25.7 0.00 0.00 0.00 55 1007.0
20260506044904 20 334 14.5 24.1 0.00 0.00 0.00 56 1006.8
20260506044404 20 344 9.7 20.9 0.00 0.00 0.00 56 1006.7
20260506043904 20 348 9.7 19.3 0.00 0.00 0.00 56 1006.6
20260506043404 20 350 11.3 20.9 0.00 0.00 0.00 56 1006.6
20260506042904 21 339 11.3 20.9 0.00 0.00 0.00 56 1006.5
20260506042404 21 337 12.9 24.1 0.00 0.00 0.00 55 1006.4
20260506041904 21 343 12.9 22.5 0.00 0.00 0.00 55 1006.3
20260506040904 21 322 9.7 20.9 0.00 0.00 0.00 55 1006.3
20260506040404 21 315 16.1 24.1 0.00 0.00 0.00 55 1006.3
20260506035404 21 329 8.0 19.3 0.00 0.00 0.00 55 1006.2
20260506034904 21 356 9.7 24.1 0.00 0.00 0.00 54 1006.0
20260506034404 22 347 14.5 20.9 0.00 0.00 0.00 55 1006.0
20260506033904 22 344 9.7 16.1 0.00 0.00 0.00 55 1005.7
20260506033404 22 334 8.0 16.1 0.00 0.00 0.00 54 1005.9
20260506032904 22 330 11.3 22.5 0.00 0.00 0.00 54 1005.9
20260506032404 22 310 9.7 29.0 0.00 0.00 0.00 54 1005.9
20260506031904 23 329 14.5 27.4 0.00 0.00 0.00 54 1005.7
20260506031404 23 324 11.3 25.7 0.00 0.00 0.00 54 1005.6
20260506030904 23 320 14.5 27.4 0.00 0.00 0.00 54 1005.5
20260506030404 23 313 8.0 20.9 0.00 0.00 0.00 53 1005.3
20260506025904 23 322 11.3 19.3 0.00 0.00 0.00 53 1005.0
20260506025404 23 322 9.7 20.9 0.00 0.00 0.00 53 1005.0
20260506024904 23 292 9.7 16.1 0.00 0.00 0.00 53 1005.0
20260506024405 23 297 6.4 12.9 0.00 0.00 0.00 53 1004.5
20260506023904 23 329 8.0 12.9 0.00 0.00 0.00 52 1004.3
20260506022904 24 336 8.0 16.1 0.00 0.00 0.00 52 1004.1
20260506022403 24 289 8.0 19.3 0.00 0.00 0.00 51 1004.1
20260506021904 24 338 11.3 20.9 0.00 0.00 0.00 51 1003.9
20260506021404 25 322 9.7 19.3 0.00 0.00 0.00 50 1004.0
20260506020904 25 312 12.9 22.5 0.00 0.00 0.00 50 1003.9
20260506020404 26 311 8.0 19.3 0.00 0.00 0.00 49 1003.5
20260506015907 26 298 9.7 14.5 0.00 0.00 0.00 50 1003.9
20260506015404 27 276 8.0 14.5 0.00 0.00 0.00 55 1003.7
20260506014404 27 223 1.6 4.8 0.00 0.00 0.00 55 1003.5
20260506013904 27 223 3.2 4.8 0.00 0.00 0.00 55 1003.6
20260506013405 27 224 3.2 4.8 0.00 0.00 0.00 55 1003.6
20260506012405 27 195 3.2 8.0 0.00 0.00 0.00 54 1003.5
20260506011904 27 190 3.2 8.0 0.00 0.00 0.00 54 1003.2
20260506011404 27 161 6.4 9.7 0.00 0.00 0.00 54 1002.8
20260506010403 27 168 11.3 19.3 0.00 0.00 0.00 54 1003.0
20260506005904 27 175 9.7 19.3 0.00 0.00 0.00 54 1003.1
20260506005404 27 172 9.7 16.1 0.00 0.00 0.00 54 1003.3
20260506004904 27 170 9.7 25.7 0.00 0.00 0.00 54 1003.1
20260506004404 27 178 8.0 16.1 0.00 0.00 0.00 54 1003.2
20260506003904 27 158 9.7 19.3 0.00 0.00 0.00 53 1003.0
20260506003404 27 158 9.7 24.1 0.00 0.00 0.00 53 1002.7
20260506002904 27 144 9.7 22.5 0.00 0.00 0.00 53 1002.5
20260506001904 27 156 11.3 24.1 0.00 0.00 0.00 53 1002.7
20260506001404 28 171 16.1 25.7 0.00 0.00 0.00 52 1002.6
20260506000904 28 145 14.5 22.5 0.00 0.00 0.00 52 1002.1
20260506000405 28 159 14.5 24.1 0.00 0.00 0.00 51 1002.4
20260505235904 28 139 14.5 24.1 0.00 0.00 0.00 51 1002.1
20260505235404 28 142 11.3 22.5 0.00 0.00 0.00 51 1002.0
20260505234904 28 148 14.5 22.5 0.00 0.00 0.00 51 1002.1
20260505234404 29 147 11.3 24.1 0.00 0.00 0.00 50 1002.3
20260505233904 29 141 14.5 24.1 0.00 0.00 0.00 50 1002.4
20260505233405 29 141 14.5 20.9 0.00 0.00 0.00 50 1002.1
20260505232404 30 159 14.5 20.9 0.00 0.00 0.00 50 1002.1
20260505231904 30 155 16.1 24.1 0.00 0.00 0.00 49 1002.3
20260505230904 30 159 14.5 20.9 0.00 0.00 0.00 49 1002.0
20260505230404 30 143 14.5 27.4 0.00 0.00 0.00 49 1001.9
20260505225404 30 150 17.7 27.4 0.00 0.00 0.00 49 1001.9
20260505224905 30 145 16.1 25.7 0.00 0.00 0.00 49 1001.8
20260505224404 30 145 14.5 22.5 0.00 0.00 0.00 49 1001.7
20260505223904 30 154 14.5 24.1 0.00 0.00 0.00 48 1001.6
20260505223404 30 158 12.9 25.7 0.00 0.00 0.00 48 1001.7
20260505222904 30 151 19.3 32.2 0.00 0.00 0.00 48 1001.7
20260505220904 30 116 14.5 25.7 0.00 0.00 0.00 48 1001.7
20260505220404 30 144 14.5 27.4 0.00 0.00 0.00 48 1001.8
20260505215904 30 160 12.9 27.4 0.00 0.00 0.00 48 1001.8
20260505215404 30 163 14.5 27.4 0.00 0.00 0.00 48 1001.8
20260505214908 30 160 16.1 27.4 0.00 0.00 0.00 49 1001.8
20260505214405 30 147 16.1 27.4 0.00 0.00 0.00 48 1001.8
20260505213904 30 170 17.7 29.0 0.00 0.00 0.00 49 1001.8
20260505213404 30 170 16.1 27.4 0.00 0.00 0.00 49 1002.0
20260505212404 30 146 16.1 27.4 0.00 0.00 0.00 48 1002.0
20260505211905 30 168 14.5 32.2 0.00 0.00 0.00 49 1002.1
20260505211404 30 166 14.5 25.7 0.00 0.00 0.00 49 1002.0
20260505210904 30 140 17.7 25.7 0.00 0.00 0.00 48 1002.1
20260505210404 30 183 16.1 24.1 0.00 0.00 0.00 48 1002.1
20260505205905 30 179 16.1 29.0 0.00 0.00 0.00 49 1002.3
20260505204904 30 176 11.3 25.7 0.00 0.00 0.00 49 1002.4
20260505204404 30 159 14.5 25.7 0.00 0.00 0.00 48 1002.4
20260505203904 30 190 16.1 29.0 0.00 0.00 0.00 49 1002.5
20260505203405 30 146 22.5 33.8 0.00 0.00 0.00 49 1002.6
20260505202904 30 161 11.3 27.4 0.00 0.00 0.00 49 1002.6
20260505202404 30 171 19.3 29.0 0.00 0.00 0.00 49 1002.7
20260505201907 30 187 16.1 27.4 0.00 0.00 0.00 50 1002.7
20260505201404 29 145 19.3 32.2 0.00 0.00 0.00 49 1002.6
20260505200904 29 164 16.1 25.7 0.00 0.00 0.00 50 1002.8
20260505195404 29 169 20.9 32.2 0.00 0.00 0.00 51 1002.8
20260505194904 29 170 16.1 29.0 0.00 0.00 0.00 50 1002.7
20260505194405 28 169 17.7 33.8 0.00 0.00 0.00 50 1002.9
20260505193903 28 169 12.9 32.2 0.00 0.00 0.00 51 1002.8
20260505193404 28 164 20.9 35.4 0.00 0.00 0.00 50 1002.9
20260505192904 28 180 16.1 32.2 0.00 0.00 0.00 50 1002.9
20260505191907 28 149 20.9 29.0 0.00 0.00 0.00 52 1002.9
20260505191404 28 151 16.1 32.2 0.00 0.00 0.00 51 1002.8
20260505190404 28 168 17.7 32.2 0.00 0.00 0.00 50 1003.2
20260505185904 28 181 19.3 32.2 0.00 0.00 0.00 51 1003.1
20260505185404 27 166 19.3 27.4 0.00 0.00 0.00 51 1003.2
20260505184904 27 157 19.3 29.0 0.00 0.00 0.00 52 1003.2
20260505184404 27 186 16.1 33.8 0.00 0.00 0.00 51 1003.3
20260505183904 27 150 19.3 32.2 0.00 0.00 0.00 51 1003.2
20260505182404 27 173 19.3 33.8 0.00 0.00 0.00 51 1003.4
20260505181904 27 157 16.1 29.0 0.00 0.00 0.00 52 1003.5
20260505181404 27 169 20.9 29.0 0.00 0.00 0.00 52 1003.4
20260505180904 27 182 17.7 32.2 0.00 0.00 0.00 52 1003.3
20260505180404 27 193 19.3 33.8 0.00 0.00 0.00 51 1003.4
20260505175904 27 186 19.3 33.8 0.00 0.00 0.00 52 1003.5
20260505174905 27 176 22.5 32.2 0.00 0.00 0.00 52 1003.5
20260505173404 27 166 22.5 33.8 0.00 0.00 0.00 52 1003.4
20260505172904 27 174 20.9 35.4 0.00 0.00 0.00 52 1003.5
20260505172404 27 169 22.5 32.2 0.00 0.00 0.00 52 1003.4
20260505171904 27 178 19.3 35.4 0.00 0.00 0.00 51 1003.5
20260505171404 27 163 24.1 40.2 0.00 0.00 0.00 52 1003.5
20260505170404 26 187 17.7 37.0 0.00 0.00 0.00 53 1003.6
20260505165903 26 159 20.9 35.4 0.00 0.00 0.00 52 1003.5
20260505165405 26 178 19.3 29.0 0.00 0.00 0.00 53 1003.5
20260505164904 26 178 17.7 32.2 0.00 0.00 0.00 53 1003.7
20260505164404 26 179 22.5 41.8 0.00 0.00 0.00 52 1003.7
20260505162904 26 186 22.5 33.8 0.00 0.00 0.00 53 1003.5
20260505162404 26 179 24.1 35.4 0.00 0.00 0.00 53 1003.4
20260505161403 25 165 22.5 37.0 0.00 0.00 0.00 54 1003.4
20260505160904 25 179 16.1 40.2 0.00 0.00 0.00 55 1003.3
20260505160404 25 175 20.9 33.8 0.00 0.00 0.00 55 1003.4
20260505152904 24 167 22.5 35.4 0.00 0.00 0.00 57 1003.6
20260505152403 24 178 19.3 40.2 0.00 0.00 0.00 57 1003.6
20260505151904 24 184 16.1 37.0 0.00 0.00 0.00 57 1003.6
20260505150904 23 174 16.1 27.4 0.00 0.00 0.00 57 1003.5
20260505150403 23 183 22.5 33.8 0.00 0.00 0.00 57 1003.4
20260505140403 22 164 16.1 32.2 0.00 0.00 0.00 60 1003.4
20260505124904 22 156 16.1 29.0 0.00 0.00 0.00 61 1003.2
20260505124404 22 155 14.5 32.2 0.00 0.00 0.00 61 1003.1
20260505123905 22 143 14.5 25.7 0.00 0.00 0.00 61 1003.0
20260505123404 22 163 16.1 25.7 0.00 0.00 0.00 61 1002.9
20260505121904 21 164 16.1 32.2 0.00 0.00 0.00 61 1002.8
20260505121404 21 165 17.7 32.2 0.00 0.00 0.00 61 1002.8
20260505120904 21 162 14.5 32.2 0.00 0.00 0.00 61 1002.8
20260505120403 21 169 16.1 25.7 0.00 0.00 0.00 61 1002.6
20260505115904 21 163 16.1 27.4 0.00 0.00 0.00 61 1002.5
20260505115404 21 157 17.7 33.8 0.00 0.00 0.00 61 1002.6
20260505114904 21 146 16.1 32.2 0.00 0.00 0.00 61 1002.5
20260505114405 21 153 17.7 25.7 0.00 0.00 0.00 61 1002.6
20260505113904 21 178 14.5 35.4 0.00 0.00 0.00 61 1002.6
20260505113404 21 175 19.3 32.2 0.00 0.00 0.00 61 1002.5